Location: Burgwalden
(48.2830°N, 10.7576°E)
Time: 02:01:37
(UTC+00:00)

Cosmos 494 Rocket - Pass Details

Date: 26 September 2023
Orbit: 741 x 768 km, 74.1° (Epoch: 04 December)

Event Time Altitude Azimuth Distance (km) Brightness Sun altitude
Rises 03:38:39 0° 334° (NNW) 3,213 7.1 -15.6°
Reaches altitude 10° 03:41:02 10° 332° (NNW) 2,280 6.3 -15.2°
Maximum altitude 03:46:09 65° 252° (WSW) 819 3.9 -14.4°
Drops below altitude 10° 03:51:11 10° 171° (S) 2,250 6.4 -13.6°
Sets 03:53:32 0° 168° (SSE) 3,167 7.2 -13.2°
